This is the latest recevied weather packets stored in our database for station/object IK1PCD-11. If no packets are shown the sender has not sent any weather packets the latest 10 day(s).
| Time | Temp. | Humidity | Pressure | Rain* | Wind** | Luminosity | Snow |
|---|---|---|---|---|---|---|---|
| 1787570753 | 21.67° C | 100% | 1021.4 hPa | - | - | - | - |
| 1787569853 | 21.11° C | 100% | 1021.4 hPa | - | - | - | - |
| 1787568953 | 22.22° C | 100% | 1021.4 hPa | - | - | - | - |
| 1787568053 | 20.56° C | 100% | 1021.8 hPa | - | - | - | - |
| 1787567153 | 20° C | 100% | 1021.7 hPa | - | - | - | - |
| 1787566254 | 19.44° C | 100% | 1021.7 hPa | - | - | - | - |
| 1787565344 | 18.89° C | 100% | 1021.8 hPa | - | - | - | - |
| 1787564447 | 19.44° C | 100% | 1021.6 hPa | - | - | - | - |
| 1787563547 | 19.44° C | 100% | 1021.9 hPa | - | - | - | - |
| 1787562646 | 18.33° C | 100% | 1022.1 hPa | - | - | - | - |
| 1787561746 | 17.78° C | 100% | 1021.9 hPa | - | - | - | - |
| 1787559046 | 16.11° C | 100% | 1021.9 hPa | - | - | - | - |
| 1787558146 | 15.56° C | 100% | 1021.8 hPa | - | - | - | - |
| 1787557246 | 15° C | 100% | 1021.7 hPa | - | - | - | - |
| 1787556346 | 14.44° C | 100% | 1021.6 hPa | - | - | - | - |
| 1787555446 | 13.89° C | 100% | 1021.5 hPa | - | - | - | - |
| 1787554546 | 13.33° C | 100% | 1021.5 hPa | - | - | - | - |
| 1787553646 | 12.22° C | 100% | 1021.5 hPa | - | - | - | - |
| 1787552746 | 12.22° C | 100% | 1021.5 hPa | - | - | - | - |
| 1787551846 | 11.67° C | 100% | 1021.4 hPa | - | - | - | - |
| 1787550945 | 11.67° C | 100% | 1021.6 hPa | - | - | - | - |
| 1787550045 | 11.67° C | 100% | 1021.4 hPa | - | - | - | - |
| 1787549145 | 11.11° C | 100% | 1021.2 hPa | - | - | - | - |
| 1787548245 | 11.11° C | 100% | 1021.1 hPa | - | - | - | - |
| 1787544644 | 11.11° C | 100% | 1021.2 hPa | - | - | - | - |
* Rain since midnight (hover to see other rain measurements)
** Current wind speed in m/s (hover to see current wind gust speed)